SCP
0 0 0 0 0 0 0 0 0 0 0 0 0 0 1 1 1 1 1 1 1 1 1 1 1 1 1 1 1 1 1 1 1 1 1 0 0 0 0 0 0 0 0
0 0 0 0 0 0 0 0 0 0 0 0 0 0 0 1 1 1 1 1 1 1 1 1 1 1 1 1 1 1 1 1 1 1 1 1 0 0 0 0 0 0 0
0 0 0 0 0 0 0 0 0 0 0 0 0 0 0 0 0 1 1 1 1 1 1 1 1 1 1 1 1 1 1 1 2 2 1 1 1 0 0 0 0 0 0
0 0 0 0 0 0 0 0 0 0 0 0 0 0 0 0 0 0 0 0 1 1 1 1 1 2 2 2 2 2 2 2 2 2 2 1 1 1 0 0 0 0 0
0 0 0 0 0 0 0 0 0 0 0 0 0 0 0 0 0 0 0 0 0 0 1 1 1 1 2 2 2 2 2 2 2 2 1 1 1 1 1 1 0 0 1
0 0 0 0 0 0 0 0 0 0 0 0 0 0 0 0 0 0 0 0 0 0 0 0 1 1 1 2 2 2 2 2 2 2 1 1 1 1 1 1 1 1 1
0 0 0 0 0 0 0 0 0 0 0 0 0 0 0 0 0 0 0 0 0 0 0 0 0 0 1 1 1 2 2 2 2 1 1 1 1 1 1 1 1 1 1
0 0 0 0 0 0 0 0 0 0 0 0 0 0 0 0 0 0 0 0 0 0 0 0 0 0 0 0 1 1 2 2 1 1 1 1 1 1 2 2 1 1 1
0 0 0 0 0 0 0 0 0 0 0 0 0 0 0 0 0 0 0 0 0 0 0 0 0 0 0 0 0 1 1 1 1 1 1 1 1 1 2 2 2 1 1
0 0 0 0 0 0 0 0 0 0 0 0 0 0 0 0 0 0 0 0 0 0 0 0 0 0 0 0 0 0 0 0 1 1 1 1 1 2 2 2 2 2 1
0 0 0 0 0 0 0 0 0 0 0 0 0 0 0 0 0 0 0 0 0 0 0 0 0 0 0 0 0 0 0 0 0 0 1 1 2 2 2 2 2 2 2
0 0 0 0 0 0 0 0 0 0 0 0 0 0 0 0 0 0 0 0 0 0 0 0 0 0 0 0 0 0 0 0 0 0 1 1 2 2 2 2 2 2 1
0 0 0 0 0 0 0 0 0 0 0 0 0 0 0 0 0 0 0 0 0 0 0 0 0 0 0 0 0 0 0 0 0 0 0 1 2 2 3 3 2 2 2
0 0 0 0 0 0 0 0 0 0 0 0 0 0 0 0 0 0 0 0 0 0 0 0 0 0 0 0 0 0 0 0 0 0 0 0 1 2 3 3 3 2 2
0 0 0 0 0 0 0 0 0 0 0 0 0 0 0 0 0 0 0 0 0 0 0 0 0 0 0 0 0 0 0 0 0 0 0 0 0 1 2 3 3 3 3
0 0 0 0 0 0 0 0 0 0 0 0 0 0 0 0 0 0 0 0 0 0 0 0 0 0 0 0 0 0 0 0 0 0 0 0 0 0 2 3 3 3 3
0 0 0 0 0 0 0 0 0 0 0 0 0 0 0 0 0 0 0 0 0 0 0 0 0 0 0 0 0 0 0 0 0 0 0 0 0 0 1 2 3 4 4
0 0 0 0 0 0 0 0 0 0 0 0 0 0 0 0 0 0 0 0 0 0 0 0 0 0 0 0 0 0 0 0 0 0 0 0 0 0 0 1 2 3 4
0 0 0 0 0 0 0 0 0 0 0 0 0 0 0 0 0 0 0 0 0 0 0 0 0 0 0 0 0 0 0 0 0 0 0 0 0 0 0 0 1 2 3
0 0 0 0 0 0 0 0 0 0 0 0 0 0 0 0 0 0 0 0 0 0 0 0 0 0 0 0 0 0 0 0 0 0 0 0 0 0 0 0 0 1 1
0 0 0 0 0 0 0 0 0 0 0 0 0 0 0 0 0 0 0 0 0 0 0 0 0 0 0 0 0 0 0 0 0 0 0 0 0 0 0 0 0 0 1
0 0 0 0 0 0 0 0 0 0 0 0 0 0 0 0 0 0 0 0 0 0 0 0 0 0 0 0 0 0 0 0 0 0 0 0 0 0 0 0 0 0 1
0 0 0 0 0 0 0 0 0 0 0 0 0 0 0 0 0 0 0 0 0 0 0 0 0 0 0 0 0 0 0 0 0 0 0 0 0 0 0 0 0 0 0
0 0 0 0 0 0 0 0 0 0 0 0 0 0 0 0 0 0 0 0 0 0 0 0 0 0 0 0 0 0 0 0 0 0 0 0 0 0 0 0 0 0 0
0 0 0 0 0 0 0 0 0 0 0 0 0 0 0 0 0 0 0 0 0 0 0 0 0 0 0 0 0 0 0 0 0 0 0 0 0 0 0 0 0 0 0
0 0 0 0 0 0 0 0 0 0 0 0 0 0 0 0 0 0 0 0 0 0 0 0 0 0 0 0 0 0 0 0 0 0 0 0 0 0 0 0 0 0 0
Wind_Speed
10 13 26 27 28 28 28 28 28 28 28 28 29 29 28 27 26 25 22 19 16 14 14 13 13 13 13 12 11 10 9 9 8 6 5 4 4 3 3 2 1 3 6
10 13 25 28 28 27 28 27 28 28 27 28 28 28 28 28 28 27 27 25 22 20 16 14 14 14 14 14 13 11 10 10 10 8 7 6 6 6 6 4 3 5 9
12 15 19 28 28 28 28 28 27 28 28 27 28 28 27 27 27 27 27 27 27 25 23 19 16 15 15 14 14 13 12 11 11 9 9 5 5 9 9 7 5 8 9
15 16 18 27 28 28 28 28 28 28 28 28 28 28 27 27 27 26 27 26 27 27 26 24 21 18 16 15 14 14 14 13 12 10 6 4 5 9 12 11 10 10 10
15 15 18 27 28 28 28 28 28 28 28 28 28 28 28 28 27 27 27 27 26 26 26 26 25 23 19 17 15 14 14 14 12 9 6 5 5 10 13 14 14 12 11
12 13 18 28 28 28 28 28 28 28 28 28 28 28 28 28 28 27 28 27 27 27 26 25 26 26 24 21 18 16 14 14 11 6 6 6 5 11 15 17 16 14 13
11 12 16 27 28 27 27 28 28 28 28 28 28 28 28 29 29 28 28 28 27 27 27 26 26 26 26 25 22 18 16 13 8 6 6 7 8 14 16 17 18 17 16
10 12 15 25 28 28 27 28 28 27 28 28 28 28 28 28 29 29 29 29 28 27 27 26 27 27 26 25 25 23 19 15 11 8 7 7 13 16 17 17 17 18 17
10 12 14 14 18 24 26 27 27 27 27 27 27 27 27 27 28 28 29 29 28 28 27 27 27 27 27 25 24 24 24 21 10 6 9 7 13 18 19 17 17 18 18
9 11 12 11 14 14 13 23 26 26 27 27 27 27 26 25 25 26 26 28 28 28 28 27 27 27 27 25 25 24 24 18 9 9 6 8 17 20 20 18 18 19 19
13 11 12 13 15 15 13 17 19 21 24 23 19 24 20 12 12 16 23 27 28 28 28 28 28 27 26 23 25 25 19 9 12 8 6 13 18 21 21 21 19 20 20
11 12 11 12 13 13 12 10 7 10 11 12 10 11 9 9 11 17 23 26 26 26 27 27 27 23 19 13 16 19 9 13 10 9 9 17 19 20 21 22 22 22 21
7 9 9 8 10 10 9 8 5 6 7 9 11 10 8 7 8 10 8 12 13 17 13 17 16 12 12 12 12 12 12 11 8 8 11 20 20 21 21 22 24 24 23
6 7 7 7 9 9 8 8 6 7 7 8 9 10 8 6 8 9 8 10 9 8 10 11 10 13 14 14 14 14 14 11 10 8 10 20 22 22 22 21 23 25 24
6 7 8 8 11 10 9 9 9 8 9 9 8 9 10 7 8 9 8 8 9 8 10 10 11 13 14 14 14 15 15 15 14 12 9 20 23 22 21 21 22 24 24
6 7 8 8 11 10 9 9 8 8 9 8 8 9 11 7 8 9 9 8 8 9 10 9 12 11 11 12 14 15 15 14 13 14 12 13 19 21 21 20 20 23 23
5 6 8 9 9 9 8 9 8 7 8 8 8 9 11 9 8 9 8 7 9 10 11 10 11 8 10 11 13 14 13 13 15 16 15 11 10 16 20 20 19 22 23
5 6 7 10 8 7 7 7 6 6 7 7 7 7 10 11 10 9 7 7 9 9 9 10 10 11 10 10 11 11 11 13 16 16 14 12 9 9 12 19 19 21 23
4 5 7 7 7 7 7 6 5 5 6 6 6 7 10 11 12 9 7 6 8 8 8 10 10 11 12 11 12 12 11 12 14 14 14 14 12 10 7 12 17 18 21
5 6 6 7 7 7 5 5 4 5 5 5 5 7 10 10 12 10 7 8 8 7 8 9 11 10 10 12 13 13 13 13 11 9 11 10 10 10 8 8 8 10 16
6 6 6 7 7 6 6 8 8 8 8 6 6 9 10 11 12 9 8 8 8 7 9 10 11 11 10 10 11 13 11 10 9 6 7 8 9 11 11 8 6 6 7
4 5 5 6 7 7 6 5 5 6 5 6 6 7 8 10 11 10 10 9 8 8 9 9 11 8 9 9 10 11 8 7 5 8 6 7 8 10 11 11 9 7 6
3 5 7 6 6 7 7 5 7 5 4 5 6 6 8 10 10 9 10 9 8 8 8 9 9 10 10 10 7 7 7 7 13 6 5 5 8 10 10 10 11 11 10
3 4 5 6 6 6 6 7 9 9 7 7 6 7 9 9 9 9 11 9 8 8 8 9 9 9 10 10 9 6 7 9 8 10 7 5 8 10 10 10 11 11 10
3 4 5 5 5 6 6 7 7 7 6 7 8 9 8 7 8 9 11 8 9 8 9 10 10 9 8 9 10 9 9 9 9 8 14 12 10 7 8 11 10 9 9
4 5 5 6 6 6 6 7 8 8 9 11 11 9 9 7 6 9 11 8 9 8 9 10 9 10 9 10 10 9 9 8 8 7 11 14 14 11 10 9 9 8 7
Wind_Direction
334 344 2 9 13 16 19 21 22 22 22 21 19 16 14 13 12 10 5 358 350 344 339 335 332 328 324 319 314 313 309 303 299 294 285 273 257 218 181 162 225 179 160
342 354 4 10 12 14 16 18 20 20 21 21 19 18 16 15 13 11 9 5 360 352 343 334 330 325 319 315 310 303 296 291 288 284 277 265 255 242 211 189 218 178 169
11 4 2 11 11 12 14 15 17 17 17 18 18 16 15 14 13 13 10 6 3 359 353 343 333 324 317 312 306 300 292 284 279 276 273 263 253 247 228 198 198 181 175
21 9 5 14 12 12 14 14 14 16 14 15 15 14 13 12 10 10 8 6 3 360 356 351 343 332 320 312 305 299 292 284 276 268 263 251 246 251 235 212 201 191 182
25 10 4 16 13 13 14 14 13 14 13 12 12 11 11 10 8 8 6 2 1 359 356 353 350 343 333 320 309 300 294 286 277 266 252 247 244 261 251 224 210 199 188
24 12 7 17 14 13 14 14 12 13 12 11 10 10 10 8 6 6 4 360 358 356 354 353 352 350 344 334 319 304 296 291 285 261 247 244 240 256 260 230 213 204 195
23 16 12 16 15 13 14 15 12 13 11 10 9 10 9 7 4 4 1 357 356 354 352 352 351 348 346 342 333 317 303 300 289 258 246 244 243 253 260 233 215 207 202
25 19 16 14 14 12 12 13 12 12 10 10 9 9 9 7 3 2 359 355 354 353 352 351 350 347 345 342 341 337 323 311 294 277 254 243 247 252 254 236 218 210 206
28 23 17 13 10 8 8 11 10 10 9 9 8 8 9 7 3 1 357 353 353 352 353 350 349 345 343 340 340 340 338 326 302 280 271 256 256 252 249 235 217 212 208
31 25 17 12 8 2 359 8 9 9 7 7 6 7 10 7 2 1 354 352 353 352 353 350 348 346 344 340 339 339 336 331 318 292 274 267 266 261 251 236 219 213 209
26 21 16 14 8 1 357 3 6 6 4 4 3 6 8 1 355 359 351 352 352 351 351 348 347 347 345 340 337 336 337 332 321 305 285 276 275 270 260 243 226 216 210
20 17 17 16 5 358 356 354 359 1 355 353 355 360 1 358 356 359 349 350 350 350 349 345 345 347 346 337 334 335 331 327 322 317 305 295 286 281 271 252 235 221 213
20 13 8 14 1 358 356 353 3 357 353 351 354 359 359 356 355 353 346 345 344 349 345 341 341 341 340 335 330 329 328 326 320 315 312 310 304 292 282 260 242 229 217
22 5 360 17 7 1 359 352 1 357 354 354 353 359 2 359 357 351 345 339 342 344 339 338 334 333 336 332 330 328 328 323 316 310 305 315 316 308 294 270 245 234 224
25 10 9 21 13 4 5 358 1 356 355 349 350 358 1 359 356 349 343 339 340 339 336 334 331 332 333 331 328 328 323 319 311 310 310 309 311 311 305 280 249 236 228
28 15 6 20 14 4 6 358 356 354 350 347 350 354 356 355 353 348 340 339 342 338 332 330 323 328 327 326 324 323 318 313 311 311 305 304 306 308 310 296 259 238 230
33 17 13 16 11 1 360 356 355 348 348 347 348 351 352 352 349 345 337 340 341 336 333 330 323 324 323 323 320 318 314 313 310 307 304 298 298 304 306 307 281 248 235
37 27 19 10 4 357 353 347 343 344 345 344 346 348 349 350 347 340 332 338 338 336 335 331 332 329 323 319 317 314 312 310 306 301 298 295 294 293 299 301 298 266 244
43 31 16 360 355 348 343 338 329 333 339 340 342 346 347 348 345 338 329 336 337 335 333 333 335 328 323 321 316 312 311 304 297 297 298 297 293 288 281 289 294 284 259
38 28 13 353 346 341 339 339 337 341 340 338 337 343 346 345 342 336 337 335 336 335 332 330 329 326 322 320 318 313 303 293 287 289 299 306 303 305 299 288 288 289 271
28 11 0 350 344 349 353 353 348 346 341 340 340 340 343 342 340 336 343 334 336 333 328 328 329 326 327 324 319 315 297 279 281 308 318 317 326 339 328 316 301 290 282
8 347 353 352 349 351 348 337 331 324 319 326 321 327 334 338 337 342 338 332 331 328 324 327 325 327 324 328 320 318 315 309 333 313 304 311 337 338 329 334 329 324 299
342 344 2 350 346 345 341 338 337 321 313 326 325 330 332 331 330 329 329 326 326 327 323 323 321 328 322 318 312 310 314 321 325 302 304 323 337 326 325 328 334 334 327
329 342 350 343 340 339 342 345 344 344 333 328 324 320 321 320 321 326 326 322 323 323 321 320 328 315 315 315 311 290 293 302 301 310 310 316 317 321 320 324 322 317 318
345 344 338 334 332 335 338 337 333 330 320 320 322 321 320 316 316 322 322 320 321 319 317 314 315 313 310 306 306 304 299 294 278 288 301 312 315 307 312 311 305 302 305
343 336 332 332 327 331 334 331 327 324 322 325 328 325 326 321 317 317 321 319 317 316 316 313 312 309 305 302 301 299 300 295 295 294 294 304 306 307 306 298 293 288 290